User: anonymous   Login
Location: Barnston
(51.8500°N, 0.4000°E)
Time: 22:10:07
(UTC+00:00)
Language:

RESURS DK-1 - Orbit

View from above orbital plane
View from above orbital plane
View from above satellite
View from above satellite

Ground track
Ground track

The orbit data is extracted from the following two-line orbital elements,

1 29228U 06021A   24055.24242167  .00003538  00000-0  24598-3 0  9996
2 29228  69.9375 353.8002 0006111 224.2656 135.8018 15.06452662975151
Epoch (UTC): 24 February 2024 05:49:05
Eccentricity: 0.0006111
inclination: 69.9375°
perigee height: 543 km
apogee height: 551 km
right ascension of ascending node: 353.8002°
argument of perigee: 224.2656°
revolutions per day: 15.06452662
mean anomaly at epoch: 135.8018°
orbit number at epoch: 97515

The dashed part of the orbit path shows where the satellite is in the earth's shadow,  

DLR